SBRFSBFN

Guest
Details From SBRF - Recife Intl
To SBFN - Fernando De Noronha
Flight Number -
Tags generated
Created
Modified
Stats Distance 297 nm / 550 km
Max Altitude 35,000 ft / 10,668 m
Waypoints 4
Social Downloads 1
Likes 0
Share VATSIM

Download

Looking for another format? Having issues loading an existing format? Contact us
Advertisement - Login to hide

Notes

Basic altitude profile: - Ascent Rate: 2500ft/min - Ascent Speed: 250kts - Cruise Altitude: 35000ft - Cruise Speed: 420kts - Descent Rate: 1500ft/min - Descent Speed: 250kts Options: - Use NATs: yes - Use PACOTS: yes - Use low airways: yes - Use high airways: yes

Route

SBRF ESGUM UB623 FNO SBFN

ID Type Via Altitude Latitude Longitude Leg Dist Tot Dist Heading (true) Name
O SBRF APT - 0 ft / 0 m -8.12790˚ -34.92298˚ - 0 nm - Recife Intl
ESGUM FIX - 35,000 ft / 10,668 m -6.62583˚ -34.03733˚ 104 nm 104 nm 30° / 30° -
FNO VOR UB623 (AWY-HI) 23,500 ft / 7,163 m -3.87020˚ -32.42932˚ 191 nm 295 nm 30° / 30° FERNANDO VOR-DME
O SBFN APT - 0 ft / 0 m -3.85493˚ -32.42333˚ 0 nm 296 nm 21° / 21° Fernando De Noronha

Altitude Profile

Advertisement - Login to hide

Weather


0- 5 10 15 20 25 30 35+ Temperature / ° C

Clouds and Precipitation
Forecast for 2017-12-18 12:00 UTC. Updated an hour ago

Ground ~20,000 ft ~40,000 ft Winds

SBRF

Details ICAO SBRF (REC)
Name Recife Intl
Region Brazil
Timezone America/Recife (UTC-3.0)
Stats Elevation 33 ft / 10 m (AMSL)
Location -8.127896° -34.922981°
Runways 2
Magnetic Variation 22.088° W

METAR

SBRF 181200Z 11009KT 9999 BKN024 28/22 Q1014

Decode

TAF

TAF SBRF 180200Z 1806/1906 10008KT 9999 SCT020 TN26/1808Z TX30/1814Z RMK PEU

Decode

Departure Runways

ID Width Length Bearing (true) Bearing (mag) Surface Threshold Offset Overrun Length
01 98 ft / 30 m 4,979 ft / 1,518 m 304.20° 326.29° Asphalt 300 ft / 91 m 0 ft / 0 m
18 148 ft / 45 m 9,915 ft / 3,022 m 161.91° 184.00° Asphalt 1,225 ft / 373 m 0 ft / 0 m
19 98 ft / 30 m 4,979 ft / 1,518 m 124.20° 146.29° Asphalt 300 ft / 91 m 0 ft / 0 m
36 148 ft / 45 m 9,915 ft / 3,022 m 341.91° 4.00° Asphalt 0 ft / 0 m 350 ft / 107 m

SBFN

Details ICAO SBFN (FEN)
Name Fernando De Noronha
Region Brazil
Timezone America/Noronha (UTC-2.0)
Stats Elevation 180 ft / 55 m (AMSL)
Location -3.854928° -32.423335°
Runways 1
Magnetic Variation 20.049° W

METAR

SBFN 181200Z 11014KT 9999 SCT019 29/23 Q1014

Decode

TAF

TAF SBFN 180200Z 1806/1818 12013KT 9999 SCT017 TN26/1808Z TX31/1815Z RMK PEU

Decode

Destination Runways

ID Width Length Bearing (true) Bearing (mag) Surface Threshold Offset Overrun Length
12 148 ft / 45 m 6,070 ft / 1,850 m 93.99° 114.04° Asphalt 0 ft / 0 m 0 ft / 0 m
30 148 ft / 45 m 6,070 ft / 1,850 m 273.98° 294.03° Asphalt 0 ft / 0 m 0 ft / 0 m

Popular Alternatives